| time (UTC) | temp C | wind direction | speed KPH | gust KPH | rain 1hr cm | rain 24hr cm | rain mn cm | humidity % | barometer mb |
| 20260902000415 | 25 | 0 | 3.2 | 0.0 | 0.00 | 0.00 | 0.00 | 45 | |
| 20260901235415 | 26 | 0 | 11.3 | 0.0 | 0.00 | 0.00 | 0.00 | 43 | |
| 20260901234415 | 26 | 0 | 4.8 | 0.0 | 0.00 | 0.00 | 0.00 | 44 | |
| 20260901233415 | 26 | 0 | 12.9 | 0.0 | 0.00 | 0.00 | 0.00 | 42 | |
| 20260901232416 | 26 | 0 | 6.4 | 0.0 | 0.00 | 0.00 | 0.00 | 43 | |
| 20260901231345 | 26 | 0 | 11.3 | 0.0 | 0.00 | 0.00 | 0.00 | 44 | |
| 20260901230315 | 25 | 0 | 4.8 | 0.0 | 0.00 | 0.00 | 0.00 | 46 | |
| 20260901225315 | 26 | 0 | 8.0 | 0.0 | 0.00 | 0.00 | 0.00 | 45 | |
| 20260901224245 | 25 | 0 | 8.0 | 0.0 | 0.00 | 0.00 | 0.00 | 46 | |
| 20260901223215 | 25 | 0 | 17.7 | 0.0 | 0.00 | 0.00 | 0.00 | 45 | |
| 20260901222145 | 25 | 0 | 3.2 | 0.0 | 0.00 | 0.00 | 0.00 | 46 | |
| 20260901221115 | 24 | 0 | 11.3 | 0.0 | 0.00 | 0.00 | 0.00 | 47 | |
| 20260901220045 | 24 | 0 | 8.0 | 0.0 | 0.00 | 0.00 | 0.00 | 48 | |
| 20260901215015 | 25 | 0 | 8.0 | 0.0 | 0.00 | 0.00 | 0.00 | 47 | |
| 20260901214015 | 25 | 0 | 11.3 | 0.0 | 0.00 | 0.00 | 0.00 | 47 | |
| 20260901212945 | 26 | 0 | 3.2 | 0.0 | 0.00 | 0.00 | 0.00 | 45 | |
| 20260901211915 | 24 | 0 | 9.7 | 0.0 | 0.00 | 0.00 | 0.00 | 49 | |
| 20260901210915 | 23 | 0 | 0.0 | 0.0 | 0.00 | 0.00 | 0.00 | 52 | |
| 20260901205845 | 23 | 0 | 14.5 | 0.0 | 0.00 | 0.00 | 0.00 | 50 | |
| 20260901204845 | 23 | 0 | 9.7 | 0.0 | 0.00 | 0.00 | 0.00 | 52 | |
| 20260901203815 | 22 | 0 | 4.8 | 0.0 | 0.00 | 0.00 | 0.00 | 54 | |
| 20260901202815 | 22 | 0 | 3.2 | 0.0 | 0.00 | 0.00 | 0.00 | 55 | |
| 20260901201815 | 22 | 0 | 4.8 | 0.0 | 0.00 | 0.00 | 0.00 | 56 | |
| 20260901200815 | 22 | 0 | 1.6 | 0.0 | 0.00 | 0.00 | 0.00 | 55 | |
| 20260901195815 | 23 | 0 | 3.2 | 0.0 | 0.00 | 0.00 | 0.00 | 53 | |
| 20260901194745 | 22 | 0 | 4.8 | 0.0 | 0.00 | 0.00 | 0.00 | 55 | |
| 20260901193715 | 21 | 0 | 9.7 | 0.0 | 0.00 | 0.00 | 0.00 | 57 | |
| 20260901192645 | 21 | 0 | 3.2 | 0.0 | 0.00 | 0.00 | 0.00 | 57 | |
| 20260901191645 | 21 | 0 | 14.5 | 0.0 | 0.00 | 0.00 | 0.00 | 58 | |
| 20260901190615 | 20 | 0 | 8.0 | 0.0 | 0.00 | 0.00 | 0.00 | 59 | |
| 20260901185615 | 20 | 0 | 3.2 | 0.0 | 0.00 | 0.00 | 0.00 | 59 | |
| 20260901184615 | 20 | 0 | 6.4 | 0.0 | 0.00 | 0.00 | 0.00 | 60 | |
| 20260901183545 | 20 | 0 | 8.0 | 0.0 | 0.00 | 0.00 | 0.00 | 60 | |
| 20260901182545 | 20 | 0 | 6.4 | 0.0 | 0.00 | 0.00 | 0.00 | 59 | |
| 20260901181515 | 20 | 0 | 9.7 | 0.0 | 0.00 | 0.00 | 0.00 | 61 | |
| 20260901180445 | 18 | 0 | 8.0 | 0.0 | 0.00 | 0.00 | 0.00 | 64 | |
| 20260901175415 | 19 | 0 | 6.4 | 0.0 | 0.00 | 0.00 | 0.00 | 64 | |
| 20260901174345 | 18 | 0 | 3.2 | 0.0 | 0.00 | 0.00 | 0.00 | 66 | |
| 20260901173345 | 17 | 0 | 3.2 | 0.0 | 0.00 | 0.00 | 0.00 | 69 | |
| 20260901172345 | 17 | 0 | 6.4 | 0.0 | 0.00 | 0.00 | 0.00 | 70 | |
| 20260901171315 | 16 | 0 | 8.0 | 0.0 | 0.00 | 0.00 | 0.00 | 73 | |
| 20260901170245 | 16 | 0 | 6.4 | 0.0 | 0.00 | 0.00 | 0.00 | 72 | |
| 20260901165215 | 16 | 0 | 6.4 | 0.0 | 0.00 | 0.00 | 0.00 | 73 | |
| 20260901164145 | 15 | 0 | 9.7 | 0.0 | 0.00 | 0.00 | 0.00 | 75 | |
| 20260901163145 | 15 | 0 | 4.8 | 0.0 | 0.00 | 0.00 | 0.00 | 76 | |
| 20260901162115 | 15 | 0 | 4.8 | 0.0 | 0.00 | 0.00 | 0.00 | 76 | |
| 20260901161045 | 15 | 0 | 6.4 | 0.0 | 0.00 | 0.00 | 0.00 | 76 | |
| 20260901160015 | 15 | 0 | 11.3 | 0.0 | 0.00 | 0.00 | 0.00 | 77 | |
| 20260901155015 | 15 | 0 | 9.7 | 0.0 | 0.00 | 0.00 | 0.00 | 78 | |
| 20260901154015 | 15 | 0 | 11.3 | 0.0 | 0.00 | 0.00 | 0.00 | 78 | |
| 20260901153015 | 14 | 0 | 3.2 | 0.0 | 0.00 | 0.00 | 0.00 | 80 | |
| 20260901151945 | 14 | 0 | 11.3 | 0.0 | 0.00 | 0.00 | 0.00 | 81 | |
| 20260901150945 | 13 | 0 | 4.8 | 0.0 | 0.00 | 0.00 | 0.00 | 82 | |
| 20260901145945 | 13 | 0 | 6.4 | 0.0 | 0.00 | 0.00 | 0.00 | 83 | |
| 20260901144945 | 13 | 0 | 6.4 | 0.0 | 0.00 | 0.00 | 0.00 | 85 | |
| 20260901143950 | 13 | 0 | 6.4 | 0.0 | 0.00 | 0.00 | 0.00 | 87 | |
| 20260901143915 | 13 | 0 | 6.4 | 0.0 | 0.00 | 0.00 | 0.00 | 87 | |
| 20260901142915 | 13 | 0 | 4.8 | 0.0 | 0.00 | 0.00 | 0.00 | 87 | |
| 20260901141845 | 13 | 0 | 6.4 | 0.0 | 0.00 | 0.00 | 0.00 | 88 | |
| 20260901140845 | 12 | 0 | 4.8 | 0.0 | 0.00 | 0.00 | 0.00 | 89 | |
| 20260901135815 | 12 | 0 | 4.8 | 0.0 | 0.00 | 0.00 | 0.00 | 89 | |
| 20260901134815 | 12 | 0 | 6.4 | 0.0 | 0.00 | 0.00 | 0.00 | 89 | |
| 20260901133745 | 12 | 0 | 4.8 | 0.0 | 0.00 | 0.00 | 0.00 | 90 | |
| 20260901132745 | 12 | 0 | 6.4 | 0.0 | 0.00 | 0.00 | 0.00 | 90 | |
| 20260901131745 | 12 | 0 | 4.8 | 0.0 | 0.00 | 0.00 | 0.00 | 90 | |
| 20260901130745 | 12 | 0 | 9.7 | 0.0 | 0.00 | 0.00 | 0.00 | 90 | |
| 20260901125745 | 12 | 0 | 6.4 | 0.0 | 0.00 | 0.00 | 0.00 | 90 | |
| 20260901124715 | 12 | 0 | 3.2 | 0.0 | 0.00 | 0.00 | 0.00 | 90 | |
| 20260901123715 | 12 | 0 | 9.7 | 0.0 | 0.00 | 0.00 | 0.00 | 90 | |
| 20260901122715 | 12 | 0 | 8.0 | 0.0 | 0.00 | 0.00 | 0.00 | 90 | |
| 20260901121645 | 12 | 0 | 4.8 | 0.0 | 0.00 | 0.00 | 0.00 | 90 | |
| 20260901120615 | 12 | 0 | 3.2 | 0.0 | 0.00 | 0.00 | 0.00 | 91 | |
| 20260901115545 | 12 | 0 | 4.8 | 0.0 | 0.00 | 0.00 | 0.00 | 91 | |
| 20260901114545 | 12 | 0 | 3.2 | 0.0 | 0.00 | 0.00 | 0.00 | 91 | |
| 20260901113515 | 12 | 0 | 3.2 | 0.0 | 0.00 | 0.00 | 0.00 | 91 | |
| 20260901112445 | 12 | 0 | 8.0 | 0.0 | 0.00 | 0.00 | 0.00 | 92 | |
| 20260901111415 | 12 | 0 | 6.4 | 0.0 | 0.00 | 0.00 | 0.00 | 92 | |
| 20260901110415 | 12 | 0 | 3.2 | 0.0 | 0.00 | 0.00 | 0.00 | 92 | |
| 20260901105345 | 12 | 0 | 4.8 | 0.0 | 0.00 | 0.00 | 0.00 | 92 | |
| 20260901104315 | 12 | 0 | 4.8 | 0.0 | 0.00 | 0.00 | 0.00 | 92 | |
| 20260901103315 | 12 | 0 | 9.7 | 0.0 | 0.00 | 0.00 | 0.00 | 92 | |
| 20260901102245 | 12 | 0 | 3.2 | 0.0 | 0.00 | 0.00 | 0.00 | 92 | |
| 20260901101215 | 12 | 0 | 4.8 | 0.0 | 0.00 | 0.00 | 0.00 | 92 | |
| 20260901100145 | 12 | 0 | 3.2 | 0.0 | 0.00 | 0.00 | 0.00 | 92 | |
| 20260901095145 | 12 | 0 | 8.0 | 0.0 | 0.00 | 0.00 | 0.00 | 91 | |
| 20260901094115 | 12 | 0 | 6.4 | 0.0 | 0.00 | 0.00 | 0.00 | 91 | |
| 20260901093045 | 12 | 0 | 6.4 | 0.0 | 0.00 | 0.00 | 0.00 | 90 | |
| 20260901092045 | 12 | 0 | 4.8 | 0.0 | 0.00 | 0.00 | 0.00 | 90 | |
| 20260901091045 | 12 | 0 | 4.8 | 0.0 | 0.00 | 0.00 | 0.00 | 89 | |
| 20260901090015 | 12 | 0 | 3.2 | 0.0 | 0.00 | 0.00 | 0.00 | 89 | |
| 20260901084945 | 12 | 0 | 6.4 | 0.0 | 0.00 | 0.00 | 0.00 | 89 | |
| 20260901083945 | 12 | 0 | 6.4 | 0.0 | 0.00 | 0.00 | 0.00 | 88 | |
| 20260901082915 | 12 | 0 | 3.2 | 0.0 | 0.00 | 0.00 | 0.00 | 88 | |
| 20260901081845 | 12 | 0 | 0.0 | 0.0 | 0.00 | 0.00 | 0.00 | 88 | |
| 20260901080815 | 12 | 0 | 4.8 | 0.0 | 0.00 | 0.00 | 0.00 | 87 | |
| 20260901075815 | 12 | 0 | 3.2 | 0.0 | 0.00 | 0.00 | 0.00 | 87 | |
| 20260901074745 | 12 | 0 | 3.2 | 0.0 | 0.00 | 0.00 | 0.00 | 87 | |
| 20260901073715 | 13 | 0 | 3.2 | 0.0 | 0.00 | 0.00 | 0.00 | 86 | |
| 20260901072715 | 13 | 0 | 3.2 | 0.0 | 0.00 | 0.00 | 0.00 | 86 | |
| 20260901071743 | 13 | 0 | 1.6 | 0.0 | 0.00 | 0.00 | 0.00 | 85 | |
| 20260901071645 | 13 | 0 | 1.6 | 0.0 | 0.00 | 0.00 | 0.00 | 85 | |
| 20260901070645 | 13 | 0 | 0.0 | 0.0 | 0.00 | 0.00 | 0.00 | 84 | |
| 20260901065615 | 13 | 0 | 3.2 | 0.0 | 0.00 | 0.00 | 0.00 | 83 | |
| 20260901064545 | 13 | 0 | 4.8 | 0.0 | 0.00 | 0.00 | 0.00 | 82 | |
| 20260901063545 | 13 | 0 | 3.2 | 0.0 | 0.00 | 0.00 | 0.00 | 82 | |
| 20260901062515 | 14 | 0 | 4.8 | 0.0 | 0.00 | 0.00 | 0.00 | 81 | |
| 20260901061515 | 14 | 0 | 4.8 | 0.0 | 0.00 | 0.00 | 0.00 | 80 | |
| 20260901060445 | 15 | 0 | 4.8 | 0.0 | 0.00 | 0.00 | 0.00 | 79 | |
| 20260901055415 | 15 | 0 | 6.4 | 0.0 | 0.00 | 0.00 | 0.00 | 79 | |
| 20260901054415 | 15 | 0 | 3.2 | 0.0 | 0.00 | 0.00 | 0.00 | 78 | |
| 20260901053415 | 15 | 0 | 4.8 | 0.0 | 0.00 | 0.00 | 0.00 | 77 | |
| 20260901052415 | 15 | 0 | 3.2 | 0.0 | 0.00 | 0.00 | 0.00 | 76 | |
| 20260901051345 | 16 | 0 | 9.7 | 0.0 | 0.00 | 0.00 | 0.00 | 75 | |
| 20260901050345 | 16 | 0 | 4.8 | 0.0 | 0.00 | 0.00 | 0.00 | 74 | |
| 20260901045345 | 16 | 0 | 3.2 | 0.0 | 0.00 | 0.00 | 0.00 | 74 | |
| 20260901044315 | 16 | 0 | 3.2 | 0.0 | 0.00 | 0.00 | 0.00 | 74 | |
| 20260901043245 | 16 | 0 | 3.2 | 0.0 | 0.00 | 0.00 | 0.00 | 73 | |
| 20260901042245 | 16 | 0 | 4.8 | 0.0 | 0.00 | 0.00 | 0.00 | 73 | |
| 20260901041245 | 17 | 0 | 3.2 | 0.0 | 0.00 | 0.00 | 0.00 | 73 | |
| 20260901040215 | 17 | 0 | 1.6 | 0.0 | 0.00 | 0.00 | 0.00 | 73 | |
| 20260901035215 | 17 | 0 | 6.4 | 0.0 | 0.00 | 0.00 | 0.00 | 72 | |
| 20260901034145 | 17 | 0 | 1.6 | 0.0 | 0.00 | 0.00 | 0.00 | 70 | |
| 20260901033145 | 18 | 0 | 3.2 | 0.0 | 0.00 | 0.00 | 0.00 | 69 | |
| 20260901032145 | 18 | 0 | 4.8 | 0.0 | 0.00 | 0.00 | 0.00 | 67 | |
| 20260901031145 | 18 | 0 | 4.8 | 0.0 | 0.00 | 0.00 | 0.00 | 66 | |
| 20260901030145 | 19 | 0 | 3.2 | 0.0 | 0.00 | 0.00 | 0.00 | 64 | |
| 20260901025115 | 20 | 0 | 4.8 | 0.0 | 0.00 | 0.00 | 0.00 | 62 | |
| 20260901024045 | 20 | 0 | 8.0 | 0.0 | 0.00 | 0.00 | 0.00 | 61 | |
| 20260901023045 | 21 | 0 | 0.0 | 0.0 | 0.00 | 0.00 | 0.00 | 60 | |
| 20260901022045 | 21 | 0 | 3.2 | 0.0 | 0.00 | 0.00 | 0.00 | 59 | |
| 20260901021015 | 22 | 0 | 1.6 | 0.0 | 0.00 | 0.00 | 0.00 | 58 | |
| 20260901015945 | 22 | 0 | 4.8 | 0.0 | 0.00 | 0.00 | 0.00 | 57 | |
| 20260901014945 | 23 | 0 | 6.4 | 0.0 | 0.00 | 0.00 | 0.00 | 55 | |
| 20260901013915 | 23 | 0 | 3.2 | 0.0 | 0.00 | 0.00 | 0.00 | 54 | |
| 20260901012915 | 23 | 0 | 3.2 | 0.0 | 0.00 | 0.00 | 0.00 | 52 | |
| 20260901011915 | 23 | 0 | 6.4 | 0.0 | 0.00 | 0.00 | 0.00 | 52 | |
| 20260901010845 | 24 | 0 | 9.7 | 0.0 | 0.00 | 0.00 | 0.00 | 50 | |
| 20260901005845 | 25 | 0 | 4.8 | 0.0 | 0.00 | 0.00 | 0.00 | 48 | |
| 20260901004815 | 25 | 0 | 6.4 | 0.0 | 0.00 | 0.00 | 0.00 | 48 | |
| 20260901003815 | 26 | 0 | 11.3 | 0.0 | 0.00 | 0.00 | 0.00 | 46 | |
| 20260901002815 | 27 | 0 | 3.2 | 0.0 | 0.00 | 0.00 | 0.00 | 44 | |
| 20260901001745 | 28 | 0 | 12.9 | 0.0 | 0.00 | 0.00 | 0.00 | 41 |